Regional Weather Roundup
Issued by NWS Lake Charles, LA

Home | Current Version | Previous Version | Text Only | Print | Product List | Glossary On
Versions: 1 2 3 4 5 6 7 8 9 10 11 12 13 14 15 16 17 18 19 20 21 22 23 24 25 26 27 28 29 30 31 32 33 34 35 36 37 38 39 40 41 42 43 44 45 46 47 48 49 50
000
ASUS44 KLCH 300510
RWRLCH
RWRLCH
REGIONAL WEATHER ROUNDUP
NATIONAL WEATHER SERVICE LAKE CHARLES LA
1100 PM CST THU JAN 29 2015

Note: "fair" indicates few or no clouds below 12,000 feet with no
significant weather and/or obstructions to visibility.


ACROSS SOUTHEAST TEXAS

CITY           SKY/WX    TMP DP  RH WIND       PRES   REMARKS
BEAUMONT       PTCLDY    58  57  97 W5        30.28R
BEAUMONT CITY    N/A     59  57  93 NW8       30.31R
ORANGE         PTCLDY    60  59  96 W3        30.30R
JASPER         MOCLDY    59  43  56 N7        30.35R
$$

ACROSS CENTRAL LOUISIANA

CITY           SKY/WX    TMP DP  RH WIND       PRES   REMARKS
LEESVILLE      MOCLDY    60  44  55 N9        30.31R
FULLERTON        N/A     61  43  51 N5        30.29R
ALEXANDRIA INT CLOUDY    61  41  47 N9        30.29R
ESLER FIELD    CLOUDY    61  41  47 N8G18     30.31R
DERIDDER         N/A     60  46  61 N9        30.32R
OAKDALE        MOCLDY    59  47  65 N7        30.29R
OPELOUSAS        N/A     58  54  85 N8        30.26R
$$

ACROSS SOUTHWEST AND SOUTH CENTRAL LOUISIANA

CITY           SKY/WX    TMP DP  RH WIND       PRES   REMARKS
SULPHUR        FOG       56  56  99 NW5       30.29R VSB 3/4
LAKE CHARLES   PTCLDY    58  57  97 NW5       30.28R
CHENNAULT INT  PTCLDY    59  57  91 NW8       30.28R
CAMERON PHI    CLEAR     61  59  94 W7        30.30S
DEQUINCY         N/A     58  51  76 N5        30.30R
JENNINGS         N/A     58  57  99 W5        30.28R
LAFAYETTE      PTCLDY    60  57  89 W3        30.25S
NEW IBERIA     CLEAR     61  57  87 W8        30.26S
ABBEVILLE        N/A     59  57  95 W6        30.26S
PATTERSON      CLEAR     55  54  94 SW5       30.27S
SALT POINT       N/A     54  54 100 W3        30.25S
$$

SELECTED SITES ACROSS THE REGION

CITY           SKY/WX    TMP DP  RH WIND       PRES   REMARKS
HOUSTON BUSH   MOCLDY    64  48  56 N12       30.31R
HOUSTON HOBBY  MOCLDY    65  57  75 N8        30.30R
GALVESTON      CLEAR     60  60 100 CALM      30.30S
COLLEGE STAT   PTCLDY    58  38  47 N18       30.36R
CONROE         PTCLDY    61  41  47 N8        30.34R
HUNTSVILLE     CLEAR     58  41  53 N5        30.36R
LUFKIN         PTCLDY    60  39  45 N8        30.36R
SHREVEPORT     CLOUDY    50  34  54 N14G25    30.41R
MONROE         PTCLDY    50  37  61 N15G21    30.40R
NATCHEZ MS     MOCLDY    55  39  54 N24G30    30.33R
BATON ROUGE    MOCLDY    61  53  75 W5        30.24R
N.O. INTL ARPT PTCLDY    60  55  83 W6        30.23S
SLIDELL        PTCLDY    59  54  83 CALM      30.22S
$$

MARINE REPORTS

STATION/POSITION TIME  TEMP    WIND        PRES    VSBY  WAVE
                       AIR SEA DIR/SP/G                  HT/PER
                 (UTC) (F)     (DEG/KT/KT) (MB)    (MI)  (FT/S)
BUOY 30 S HIGH I 0500   60 60  240/  4/  6 1025.4R         1/ 4
SEA RIM ST PARK  0500   59     280/  6/  7 1026.2R
PORT ARTHUR      0500      54  290/  5/  8 1025.5S
SABINE PASS N    0500   60 56  320/  3/  4 1025.5R
TEXAS POINT      NOT AVBL
CALCASIEU PASS   0500   61 57  300/  6/  6   N/A
LK CHARLES BEACH 0500   60 58              1025.5R
MARSH ISLAND     0400   61     270/ 10/ 11   N/A
FRESH WATER LOCK 0500   58 58  260/  4/  4 1024.8R
AMERADA PASS     0500   58 49  240/  2/  5 1024.6S
$$


USA.gov is the U.S. government's official web portal to all federal, state and local government web resources and services.